• In Hungary
  • List of Countries
  • For 7 days
  • Water Temperature
  • Satellite Maps
  • Weather Map
  • News
  • Weather Widgets
  • user-avatar
    Login

    Hourly Weather Farnworth

    Today, 24 January, Wednesday

    Time Temperature Precipitation Wind Pressure Humidity
    00:00 +6°C° 0 mm 7 mps 741 mmHg 88%
    01:00 +7°C° 0.1 mm 8 mps 740 mmHg 86%
    02:00 +7°C° 0.1 mm 9 mps 738 mmHg 84%
    03:00 +8°C° 0.1 mm 10 mps 737 mmHg 83%
    04:00 +9°C° 0.7 mm 11 mps 736 mmHg 82%
    05:00 +9°C° 0.7 mm 11 mps 735 mmHg 82%
    06:00 +10°C° 0.7 mm 12 mps 734 mmHg 82%
    07:00 +8°C° 2.3 mm 11 mps 733 mmHg 81%
    08:00 +7°C° 2.3 mm 11 mps 733 mmHg 79%
    09:00 +6°C° 2.3 mm 10 mps 733 mmHg 77%
    10:00 +6°C° 0.5 mm 10 mps 734 mmHg 75%
    11:00 +6°C° 0.5 mm 10 mps 734 mmHg 73%
    12:00 +6°C° 0.5 mm 10 mps 735 mmHg 71%
    13:00 +6°C° 0 mm 10 mps 735 mmHg 69%
    14:00 +6°C° 0 mm 9 mps 736 mmHg 68%
    15:00 +6°C° 0 mm 9 mps 736 mmHg 66%
    16:00 +5°C° 0.1 mm 9 mps 736 mmHg 69%
    17:00 +5°C° 0.1 mm 8 mps 736 mmHg 71%
    18:00 +4°C° 0.1 mm 8 mps 737 mmHg 74%
    19:00 +4°C° 0.1 mm 8 mps 737 mmHg 74%
    20:00 +4°C° 0.1 mm 7 mps 737 mmHg 74%
    21:00 +3°C° 0.1 mm 7 mps 738 mmHg 74%
    22:00 +3°C° 0.1 mm 7 mps 738 mmHg 74%
    23:00 +3°C° 0.1 mm 7 mps 738 mmHg 75%

    Tomorrow, 25 January, Thursday

    Time Temperature Precipitation Wind Pressure Humidity
    00:00 +3°C° 0.1 mm 7 mps 738 mmHg 75%
    01:00 +3°C° 0.1 mm 7 mps 738 mmHg 76%
    02:00 +3°C° 0.1 mm 6 mps 738 mmHg 76%
    03:00 +2°C° 0.1 mm 6 mps 738 mmHg 76%
    04:00 +2°C° 0.1 mm 6 mps 738 mmHg 76%
    05:00 +2°C° 0.1 mm 6 mps 738 mmHg 77%
    06:00 +2°C° 0.1 mm 6 mps 738 mmHg 77%
    07:00 +2°C° 0 mm 6 mps 738 mmHg 77%
    08:00 +2°C° 0 mm 6 mps 738 mmHg 77%
    09:00 +2°C° 0 mm 6 mps 738 mmHg 78%
    10:00 +3°C° 0 mm 7 mps 738 mmHg 74%
    11:00 +4°C° 0 mm 8 mps 738 mmHg 70%
    12:00 +5°C° 0 mm 8 mps 738 mmHg 66%
    13:00 +5°C° 0.3 mm 8 mps 738 mmHg 68%
    14:00 +5°C° 0.3 mm 7 mps 738 mmHg 69%
    15:00 +5°C° 0.3 mm 7 mps 738 mmHg 71%
    16:00 +4°C° 0.2 mm 6 mps 738 mmHg 75%
    17:00 +3°C° 0.2 mm 6 mps 738 mmHg 78%
    18:00 +3°C° 0.2 mm 5 mps 739 mmHg 82%
    19:00 +3°C° 0.1 mm 5 mps 739 mmHg 83%
    20:00 +2°C° 0.1 mm 5 mps 740 mmHg 84%
    21:00 +3°C° 0.1 mm 4 mps 741 mmHg 85%
    22:00 +3°C° 0.1 mm 4 mps 741 mmHg 86%
    23:00 +3°C° 0.1 mm 4 mps 742 mmHg 87%

    Day after tomorrow, 26 January, Friday

    Time Temperature Precipitation Wind Pressure Humidity
    00:00 +3°C° 0.1 mm 4 mps 742 mmHg 88%
    01:00 +3°C° 0 mm 4 mps 743 mmHg 89%
    02:00 +1°C° 0 mm 4 mps 744 mmHg 89%
    03:00 +1°C° 0 mm 4 mps 745 mmHg 90%
    04:00 +1°C° 0 mm 4 mps 746 mmHg 89%
    05:00 +1°C° 0 mm 4 mps 746 mmHg 88%
    06:00 0°C° 0 mm 4 mps 747 mmHg 88%
    07:00 +1°C° 0 mm 3 mps 748 mmHg 87%
    08:00 +1°C° 0 mm 3 mps 749 mmHg 87%
    09:00 +1°C° 0 mm 3 mps 750 mmHg 86%
    10:00 +2°C° 0 mm 3 mps 751 mmHg 83%
    11:00 +3°C° 0 mm 3 mps 751 mmHg 79%
    12:00 +4°C° 0 mm 3 mps 752 mmHg 75%
    13:00 +6°C° 0 mm 2 mps 752 mmHg 75%
    14:00 +6°C° 0 mm 2 mps 752 mmHg 75%
    15:00 +6°C° 0 mm 2 mps 753 mmHg 76%
    16:00 +6°C° 0 mm 1 mps 753 mmHg 79%
    17:00 +5°C° 0 mm 1 mps 754 mmHg 82%
    18:00 +4°C° 0 mm 1 mps 754 mmHg 86%
    19:00 +4°C° 0 mm 1 mps 755 mmHg 86%
    20:00 +3°C° 0 mm 2 mps 755 mmHg 87%
    21:00 +3°C° 0 mm 2 mps 755 mmHg 87%
    22:00 +3°C° 0 mm 2 mps 755 mmHg 88%
    23:00 +3°C° 0 mm 2 mps 755 mmHg 89%

    27 January, Saturday

    Time Temperature Precipitation Wind Pressure Humidity
    00:00 +3°C° 0 mm 2 mps 755 mmHg 90%
    01:00 +2°C° 0 mm 3 mps 755 mmHg 90%
    02:00 +2°C° 0 mm 3 mps 755 mmHg 90%
    03:00 +2°C° 0 mm 3 mps 755 mmHg 90%
    04:00 +2°C° 0 mm 3 mps 755 mmHg 91%
    05:00 +1°C° 0 mm 4 mps 754 mmHg 91%
    06:00 +1°C° 0 mm 4 mps 754 mmHg 91%
    07:00 +3°C° 0 mm 4 mps 754 mmHg 92%
    08:00 +2°C° 0 mm 5 mps 754 mmHg 93%
    09:00 +3°C° 0 mm 5 mps 754 mmHg 93%
    10:00 +5°C° 0.3 mm 5 mps 754 mmHg 93%
    11:00 +5°C° 0.3 mm 5 mps 754 mmHg 93%
    12:00 +6°C° 0.3 mm 5 mps 754 mmHg 92%
    13:00 +7°C° 0.7 mm 5 mps 754 mmHg 92%
    14:00 +7°C° 0.7 mm 6 mps 753 mmHg 92%
    15:00 +8°C° 0.7 mm 6 mps 753 mmHg 91%
    16:00 +8°C° 0.3 mm 6 mps 754 mmHg 92%
    17:00 +8°C° 0.3 mm 6 mps 754 mmHg 92%
    18:00 +9°C° 0.3 mm 6 mps 754 mmHg 93%
    19:00 +8°C° 0.1 mm 6 mps 755 mmHg 93%
    20:00 +8°C° 0.1 mm 5 mps 756 mmHg 93%
    21:00 +8°C° 0.1 mm 5 mps 756 mmHg 93%
    22:00 +8°C° 0 mm 5 mps 757 mmHg 92%
    23:00 +7°C° 0 mm 5 mps 757 mmHg 92%

    28 January, Sunday

    Time Temperature Precipitation Wind Pressure Humidity
    00:00 +7°C° 0 mm 5 mps 758 mmHg 91%
    01:00 +7°C° 0 mm 5 mps 758 mmHg 92%
    02:00 +7°C° 0 mm 4 mps 758 mmHg 92%
    03:00 +6°C° 0 mm 4 mps 758 mmHg 93%
    04:00 +7°C° 0.2 mm 4 mps 758 mmHg 93%
    05:00 +8°C° 0.2 mm 5 mps 758 mmHg 93%
    06:00 +8°C° 0.2 mm 5 mps 758 mmHg 93%
    07:00 +9°C° 0 mm 6 mps 759 mmHg 92%
    08:00 +9°C° 0 mm 6 mps 759 mmHg 92%
    09:00 +9°C° 0 mm 6 mps 759 mmHg 92%
    10:00 +10°C° 0 mm 6 mps 760 mmHg 89%
    11:00 +10°C° 0 mm 6 mps 760 mmHg 86%
    12:00 +11°C° 0 mm 6 mps 760 mmHg 83%
    13:00 +11°C° 0 mm 6 mps 760 mmHg 83%
    14:00 +11°C° 0 mm 6 mps 760 mmHg 83%
    15:00 +11°C° 0 mm 6 mps 760 mmHg 83%
    16:00 +10°C° 0 mm 6 mps 760 mmHg 84%
    17:00 +9°C° 0 mm 6 mps 760 mmHg 86%
    18:00 +9°C° 0 mm 5 mps 760 mmHg 87%
    19:00 +9°C° 0 mm 6 mps 760 mmHg 86%
    20:00 +8°C° 0 mm 6 mps 760 mmHg 86%
    21:00 +8°C° 0 mm 6 mps 760 mmHg 86%
    22:00 +8°C° 0 mm 6 mps 759 mmHg 85%
    23:00 +8°C° 0 mm 7 mps 759 mmHg 84%

    29 January, Monday

    Time Temperature Precipitation Wind Pressure Humidity
    00:00 +9°C° 0 mm 7 mps 759 mmHg 83%
    01:00 +7°C° 0 mm 8 mps 759 mmHg 83%
    02:00 +7°C° 0 mm 8 mps 759 mmHg 83%
    03:00 +7°C° 0 mm 8 mps 758 mmHg 84%
    04:00 +7°C° 0 mm 8 mps 758 mmHg 83%
    05:00 +7°C° 0 mm 8 mps 758 mmHg 83%
    06:00 +7°C° 0 mm 8 mps 757 mmHg 83%
    07:00 +7°C° 0 mm 8 mps 757 mmHg 83%
    08:00 +7°C° 0 mm 9 mps 757 mmHg 83%
    09:00 +7°C° 0 mm 9 mps 757 mmHg 83%
    10:00 +9°C° 0.1 mm 8 mps 757 mmHg 83%
    11:00 +9°C° 0.1 mm 8 mps 757 mmHg 83%
    12:00 +9°C° 0.1 mm 8 mps 757 mmHg 83%
    13:00 +9°C° 0.2 mm 7 mps 757 mmHg 84%
    14:00 +9°C° 0.2 mm 7 mps 757 mmHg 84%
    15:00 +9°C° 0.2 mm 6 mps 756 mmHg 85%
    16:00 +9°C° 0.3 mm 6 mps 756 mmHg 86%
    17:00 +9°C° 0.3 mm 5 mps 755 mmHg 87%
    18:00 +8°C° 0.3 mm 5 mps 755 mmHg 88%
    19:00 +8°C° 0.4 mm 5 mps 754 mmHg 87%
    20:00 +8°C° 0.4 mm 6 mps 754 mmHg 85%
    21:00 +8°C° 0.4 mm 7 mps 753 mmHg 84%
    22:00 +8°C° 0.8 mm 7 mps 752 mmHg 84%
    23:00 +8°C° 0.8 mm 7 mps 752 mmHg 85%
    Show more